Location: Ferintosh
(52.7647°N, 112.9692°W)
Time: 18:27:34
(UTC+00:00)

Explorer 7 - Pass Details

Date: 29 May 2024
Orbit: 466 x 622 km, 50.3° (Epoch: 15 June)

Event Time Altitude Azimuth Distance (km) Brightness Sun altitude
Rises 05:29:17 0° 248° (WSW) 2,511 10.3 -11.1°
Reaches altitude 10° 05:31:26 10° 243° (WSW) 1,648 9.3 -11.2°
Maximum altitude 05:35:02 51° 168° (SSE) 625 6.7 -11.5°
Drops below altitude 10° 05:38:48 10° 91° (E) 1,718 9.1 -11.8°
Sets 05:41:06 0° 87° (E) 2,632 10.1 -11.9°
